Wind_Speed
5 6 6 5 6 5 4 4 4 3 3 3 2 2 2 2 2 2 3 2 2 3 3 3 3 4 4 3 3 3 3 3 3 3 3 3 3 3 3 4 4 4 4 4 5 6 5 5 4
4 4 5 6 5 5 4 3 2 3 3 3 3 2 2 2 3 3 4 3 3 3 3 3 3 4 4 4 4 4 4 5 5 4 4 3 3 3 4 4 4 5 5 5 5 5 4 4 4
4 3 4 4 4 5 4 3 2 3 3 3 3 3 3 3 3 3 4 4 4 4 3 3 4 4 4 5 5 5 5 5 5 6 5 4 4 4 4 5 5 5 5 5 5 4 4 4 4
4 4 4 4 4 5 5 4 3 3 3 3 3 3 3 4 4 4 4 5 5 4 4 3 4 4 5 5 5 5 5 6 5 5 5 5 5 5 5 5 5 5 5 5 5 5 4 4 5
5 5 5 5 5 4 5 4 4 4 4 4 3 3 4 4 4 4 6 6 6 5 4 4 5 5 5 5 6 5 5 5 5 5 5 6 6 6 6 6 7 7 6 6 6 6 5 5 5
6 5 5 5 5 5 5 4 4 4 4 4 4 4 4 5 5 5 6 7 6 6 5 5 5 5 5 6 6 6 6 6 5 5 6 6 6 6 6 7 7 7 7 6 6 6 6 6 6
6 6 5 5 5 5 5 5 5 6 5 5 5 5 5 6 5 5 6 6 6 6 5 6 6 6 6 6 6 6 6 6 5 5 6 6 6 7 7 6 6 6 7 6 6 6 6 6 6
6 6 6 6 6 6 6 6 5 6 6 5 6 6 6 6 6 6 5 6 6 6 6 6 7 7 7 7 7 6 6 5 5 5 6 6 6 6 7 6 6 6 6 6 6 6 6 6 6
7 7 6 6 6 6 7 7 6 6 5 6 6 6 5 5 5 5 5 5 6 6 6 6 6 7 7 6 7 6 6 6 6 6 6 6 6 7 7 6 6 6 6 6 6 6 6 6 7
7 7 7 7 7 7 7 7 6 5 5 6 6 6 6 6 5 5 6 6 6 7 7 7 7 7 7 6 6 7 7 7 7 7 7 7 7 7 7 7 7 7 7 6 6 7 7 7 7
8 8 7 7 7 6 6 7 6 6 6 6 6 6 7 7 6 6 6 7 7 7 7 7 6 6 7 7 7 7 7 7 7 7 7 7 7 7 7 7 7 7 7 7 7 8 8 8 7
9 8 7 7 7 6 6 7 7 6 7 7 7 7 7 7 7 7 8 8 8 8 8 8 7 7 7 6 7 7 7 6 7 7 7 7 7 7 7 7 8 8 8 7 7 8 8 8 8
8 7 7 6 6 6 6 6 7 7 7 7 7 7 7 7 8 8 8 8 8 8 8 7 7 7 7 7 7 7 7 6 6 6 7 6 7 7 7 7 8 8 8 8 8 8 8 8 8
8 8 7 7 8 8 7 7 7 6 7 7 7 8 8 8 8 8 8 8 7 7 7 7 7 7 7 7 7 7 6 6 6 6 7 7 7 7 7 7 8 8 9 9 9 9 9 9 9
8 8 7 7 7 8 8 8 7 6 7 7 8 8 8 8 8 8 7 7 7 7 6 7 7 7 7 6 6 6 6 7 7 6 6 7 7 7 7 8 8 9 9 8 9 9 9 9 9
8 8 7 7 7 7 7 7 6 7 6 7 7 7 7 8 7 7 7 8 8 7 6 7 6 7 6 6 6 6 7 7 7 7 7 7 7 7 8 8 9 8 8 9 9 9 9 8 8
8 8 7 7 6 6 6 6 6 6 6 7 7 7 7 7 7 7 7 8 8 7 7 7 7 7 7 6 6 6 7 7 7 7 7 7 7 7 8 8 8 8 8 8 8 8 8 8 8
7 7 7 6 6 6 6 5 5 6 6 6 5 5 5 6 6 7 6 6 7 7 7 7 7 7 7 7 6 6 7 7 7 7 7 7 7 8 8 8 8 8 7 7 7 7 7 8 8
7 7 6 5 6 6 6 6 5 6 6 5 6 6 6 6 7 7 6 6 7 7 8 8 8 7 7 8 8 8 8 8 7 7 7 7 7 8 8 8 7 7 7 7 7 7 7 8 8
7 6 6 5 5 6 6 6 6 5 5 6 6 6 6 7 7 7 7 7 7 7 8 8 8 8 8 8 9 9 9 8 7 7 7 7 8 7 7 7 7 7 7 8 8 7 7 8 8
8 7 6 6 5 5 6 6 6 6 6 6 6 7 6 7 7 7 7 7 8 8 8 9 9 9 9 9 10 10 9 9 8 8 8 8 8 7 7 8 8 7 7 7 7 7 7 7 7
9 8 7 7 7 7 7 6 6 6 6 6 6 6 7 8 8 8 8 9 9 9 9 9 9 9 10 10 9 9 9 8 9 9 8 8 8 8 8 8 8 8 8 7 7 7 7 8 8
9 9 9 9 9 8 8 8 6 7 6 7 7 7 7 8 9 9 9 9 10 10 10 10 10 10 10 9 10 10 10 10 9 9 9 9 9 9 9 9 8 8 9 9 8 8 8 8 9
10 10 10 10 10 9 9 9 6 6 7 8 7 8 8 9 9 10 10 11 10 10 11 10 10 11 10 10 10 11 11 10 10 10 10 10 10 10 10 10 9 9 9 9 9 9 9 10 10
11 11 12 12 11 10 10 10 7 7 7 7 8 8 9 9 9 10 11 11 12 11 11 10 11 11 11 12 12 11 11 12 11 11 11 11 10 10 11 11 10 10 10 10 10 10 10 11 11
11 12 12 13 13 12 12 10 9 8 7 8 8 9 10 10 10 11 12 12 12 12 11 11 12 12 12 13 13 13 13 13 13 12 12 12 11 12 12 12 12 12 11 11 12 11 11 12 12
12 12 12 13 13 13 12 12 11 9 9 9 10 10 11 11 11 12 12 12 12 12 12 12 13 13 13 14 13 13 13 14 14 13 13 13 13 13 13 13 13 12 13 13 13 13 12 12 13
13 13 14 15 15 15 14 13 12 11 10 10 10 11 11 12 13 13 13 13 13 13 14 14 14 14 15 15 14 14 14 14 14 14 14 14 14 15 15 14 14 13 13 13 13 14 13 13 13
14 14 15 16 16 16 16 14 13 13 12 12 12 12 13 13 14 14 14 14 14 15 15 15 15 15 15 15 15 14 14 15 15 15 15 15 15 15 16 16 15 15 15 14 14 14 14 14 14
16 15 16 17 16 17 17 15 15 15 15 14 13 13 14 14 14 14 14 15 15 16 16 16 16 16 16 16 16 16 15 15 16 16 16 16 16 16 16 16 16 16 16 16 16 15 14 15 15
Wind_Direction
225 226 219 217 218 214 218 212 207 210 208 227 238 250 257 266 287 288 286 295 310 314 312 324 339 353 351 342 336 329 318 311 309 302 300 288 286 284 269 265 271 278 280 291 300 298 283 266 263
226 223 219 213 212 214 215 213 213 228 223 227 230 233 260 271 278 280 283 284 292 300 308 316 320 330 334 326 317 313 309 302 292 294 297 294 284 286 277 272 274 279 280 291 301 307 285 258 263
222 212 224 221 214 218 222 227 238 235 231 227 232 241 259 276 281 277 279 282 285 295 308 312 316 322 326 323 321 310 306 302 292 293 293 290 281 278 278 281 278 281 282 287 297 302 279 269 271
224 226 235 233 230 227 226 228 246 258 250 247 244 250 263 272 275 274 277 279 283 288 299 306 306 315 319 318 321 313 307 299 290 289 287 283 280 275 274 278 280 283 284 281 289 292 284 282 280
224 228 232 233 234 229 233 240 250 253 248 262 267 264 270 272 272 271 274 276 278 283 286 292 297 305 312 311 312 314 313 302 289 282 280 279 279 277 274 275 281 282 284 283 283 284 276 274 277
229 232 231 236 238 223 232 242 246 253 253 260 267 267 269 275 273 276 275 273 274 274 277 285 289 293 300 306 309 308 307 299 290 284 283 284 282 280 278 276 279 279 282 281 280 280 278 273 273
233 237 236 239 240 228 229 242 254 262 255 257 259 270 271 271 272 276 280 279 274 272 275 280 283 287 297 303 309 309 307 299 292 287 287 288 287 287 289 281 282 283 282 279 278 280 274 270 269
236 238 238 239 250 246 237 240 255 264 258 256 261 273 273 272 271 273 278 283 277 275 279 281 282 286 293 301 305 307 303 300 298 293 289 289 290 291 292 286 284 279 283 280 279 283 272 271 271
237 239 242 247 253 253 245 245 254 263 258 255 263 275 281 278 274 272 271 274 273 275 277 279 282 286 288 292 299 301 299 297 293 289 287 286 288 290 292 290 285 281 281 280 280 283 281 277 273
241 244 248 251 252 251 249 251 254 259 263 259 263 272 279 285 280 276 278 276 272 271 276 280 278 286 288 289 292 294 298 298 295 290 287 289 291 292 290 289 284 282 282 281 284 285 283 275 274
245 246 249 248 252 252 250 254 260 263 269 266 268 270 277 280 277 273 275 276 273 272 276 281 283 285 285 287 293 294 297 297 298 291 286 289 294 290 285 285 281 279 280 281 285 284 281 277 277
249 244 248 249 250 251 251 257 258 261 271 272 270 268 275 273 272 269 268 271 275 273 274 271 272 280 285 286 287 293 295 296 297 296 291 288 289 289 285 283 277 275 277 280 282 282 282 279 276
251 248 248 248 249 252 255 258 263 263 269 272 269 264 268 269 269 271 274 275 277 274 272 270 271 279 282 282 286 292 295 295 297 294 294 291 292 293 290 284 278 278 281 286 287 283 283 279 276
246 245 246 247 248 248 254 258 261 263 267 268 268 269 273 273 268 268 273 272 274 280 281 278 277 281 286 283 287 292 293 294 299 294 291 295 298 297 292 288 285 289 289 286 282 281 279 275 273
241 242 244 245 250 252 256 257 262 263 263 270 273 272 271 270 267 268 272 274 270 277 276 274 277 280 283 277 280 287 295 301 302 294 295 291 294 296 293 290 289 292 292 292 285 280 276 272 270
238 237 242 242 247 251 256 257 262 258 260 265 272 275 269 270 268 269 271 275 273 274 275 273 278 282 280 276 284 294 295 299 303 297 294 291 292 294 291 289 287 290 291 291 289 282 276 270 273
241 240 240 245 243 247 256 259 262 259 260 263 270 271 275 272 268 269 268 272 274 279 283 283 286 283 280 280 284 290 294 296 297 296 290 286 286 288 290 292 290 289 292 291 286 282 274 268 270
244 242 241 243 240 246 257 264 267 265 262 264 266 264 273 274 275 277 273 269 271 277 284 287 285 281 282 281 285 287 289 292 291 291 295 287 282 284 286 289 291 292 293 292 289 286 276 269 268
248 248 251 246 239 244 253 261 263 264 263 267 267 267 269 269 269 272 276 274 272 275 279 280 281 281 283 284 282 284 287 287 283 285 292 297 291 286 283 284 284 288 295 294 297 288 273 268 267
250 250 246 243 246 248 251 254 255 257 262 266 266 265 267 272 271 273 276 273 272 276 279 280 279 279 279 282 284 285 284 283 286 289 288 289 292 291 287 286 290 288 289 291 292 284 281 278 273
243 247 246 251 262 262 259 254 254 259 255 258 266 266 265 269 270 274 274 274 278 281 282 282 279 276 277 280 286 286 283 282 281 282 281 282 282 283 285 287 289 288 288 289 288 286 282 284 280
242 247 248 253 258 263 265 263 258 255 250 251 263 270 268 268 269 273 276 275 278 279 279 279 276 275 274 276 279 278 279 281 276 276 278 277 279 283 285 284 285 283 284 285 286 283 284 283 282
241 247 251 256 262 268 272 271 270 264 262 256 260 264 268 272 272 276 280 280 280 280 280 279 275 272 272 272 272 274 276 280 277 275 278 277 277 280 283 284 284 282 279 281 278 276 280 284 284
241 247 251 256 262 265 271 273 272 270 268 264 261 264 269 274 275 278 281 283 282 282 281 278 275 272 271 272 273 273 275 278 277 276 278 278 277 277 281 279 282 283 282 278 272 273 276 280 282
248 251 250 252 258 262 266 270 274 274 271 273 275 273 272 275 275 276 279 281 279 279 278 276 274 273 271 270 271 272 272 276 276 275 274 276 276 276 277 275 276 280 281 278 275 276 277 276 278
252 254 253 255 260 264 265 270 275 273 274 277 278 277 278 278 277 277 277 278 278 276 275 276 276 275 271 269 270 273 273 273 273 271 271 273 274 274 272 272 274 275 277 277 276 276 277 274 275
255 257 258 257 261 261 263 270 276 273 275 277 281 281 281 281 279 278 276 276 276 276 276 275 276 275 269 266 267 270 271 271 270 268 269 271 272 272 271 271 272 273 276 278 278 278 278 275 275
256 256 257 261 263 263 268 269 275 277 280 284 284 283 282 280 280 280 276 276 276 276 276 275 275 275 273 268 266 269 271 269 269 268 269 271 269 269 270 270 271 273 276 279 281 281 279 276 275
255 255 257 261 263 266 270 272 274 278 280 280 283 285 283 278 280 281 278 278 278 277 276 274 273 274 276 273 268 269 269 267 267 268 270 269 269 270 269 268 270 273 276 278 279 279 278 276 276
254 256 259 261 264 266 271 270 274 276 279 281 283 285 285 280 280 282 283 282 279 278 275 275 274 273 276 275 271 269 267 267 267 267 270 270 270 270 269 266 267 271 274 276 277 277 277 276 276
Height
5886 5887 5888 5889 5890 5890 5890 5890 5890 5890 5891 5891 5891 5891 5892 5892 5893 5895 5893 5891 5891 5891 5891 5890 5890 5889 5889 5888 5888 5887 5887 5886 5886 5885 5884 5884 5883 5883 5883 5882 5881 5881 5880 5879 5878 5876 5874 5875 5877
5885 5886 5888 5889 5889 5889 5889 5889 5889 5890 5890 5890 5890 5891 5891 5891 5892 5892 5891 5891 5891 5890 5890 5890 5889 5889 5889 5888 5888 5887 5887 5886 5885 5884 5884 5883 5883 5882 5882 5881 5881 5880 5879 5879 5877 5874 5871 5873 5876
5885 5886 5888 5888 5887 5888 5889 5889 5889 5889 5889 5889 5890 5890 5890 5891 5891 5891 5890 5890 5890 5890 5889 5889 5889 5889 5888 5888 5887 5887 5886 5885 5885 5884 5883 5883 5882 5882 5881 5881 5880 5879 5879 5878 5877 5875 5873 5874 5875
5885 5886 5887 5887 5887 5887 5888 5888 5888 5888 5888 5888 5889 5889 5889 5890 5890 5890 5889 5889 5889 5889 5889 5889 5888 5888 5888 5887 5887 5886 5885 5884 5884 5883 5882 5882 5881 5881 5880 5880 5879 5878 5878 5877 5876 5876 5875 5875 5875
5884 5885 5886 5886 5886 5886 5886 5886 5887 5887 5887 5887 5888 5888 5888 5888 5888 5888 5888 5888 5888 5888 5888 5888 5888 5887 5887 5887 5886 5885 5884 5883 5882 5882 5881 5881 5880 5880 5879 5879 5878 5878 5877 5876 5876 5875 5875 5874 5874
5884 5885 5885 5885 5885 5885 5885 5885 5885 5886 5886 5886 5887 5887 5887 5887 5887 5887 5887 5887 5887 5887 5887 5887 5887 5886 5886 5885 5885 5884 5883 5882 5881 5881 5880 5880 5879 5879 5878 5877 5877 5876 5876 5875 5875 5874 5874 5874 5873
5884 5883 5883 5884 5884 5884 5884 5884 5884 5885 5885 5885 5886 5886 5886 5886 5886 5886 5886 5885 5885 5885 5886 5885 5885 5885 5885 5884 5884 5883 5882 5881 5880 5880 5879 5878 5878 5877 5877 5876 5875 5875 5874 5874 5873 5873 5873 5872 5872
5882 5883 5882 5882 5883 5883 5883 5883 5883 5883 5883 5884 5884 5884 5884 5884 5884 5884 5884 5884 5884 5884 5884 5884 5884 5884 5883 5883 5882 5882 5881 5880 5879 5878 5877 5877 5876 5876 5875 5875 5874 5874 5873 5873 5872 5872 5871 5871 5871
5880 5882 5881 5881 5882 5882 5882 5882 5882 5882 5882 5882 5882 5883 5883 5883 5882 5883 5883 5883 5883 5883 5883 5883 5883 5882 5882 5882 5881 5880 5879 5879 5878 5877 5876 5875 5875 5874 5874 5873 5873 5872 5872 5871 5871 5871 5870 5870 5870
5879 5879 5880 5880 5880 5880 5880 5881 5881 5881 5880 5881 5881 5881 5881 5881 5881 5881 5882 5882 5881 5881 5881 5881 5881 5881 5880 5880 5879 5879 5878 5877 5876 5875 5874 5874 5873 5872 5872 5872 5871 5871 5870 5870 5870 5869 5869 5869 5868
5877 5878 5878 5878 5878 5878 5879 5879 5880 5879 5879 5880 5879 5880 5880 5880 5880 5880 5880 5880 5880 5880 5880 5879 5879 5879 5878 5878 5878 5877 5876 5876 5875 5874 5873 5872 5871 5871 5870 5870 5869 5869 5869 5868 5868 5868 5867 5867 5867
5876 5876 5876 5876 5876 5877 5877 5877 5878 5878 5878 5878 5878 5878 5878 5878 5878 5879 5879 5879 5878 5878 5878 5878 5878 5877 5877 5877 5876 5876 5875 5874 5873 5872 5871 5871 5870 5869 5869 5868 5868 5867 5867 5867 5866 5866 5865 5865 5865
5874 5874 5874 5874 5874 5875 5875 5876 5876 5876 5876 5876 5876 5876 5876 5876 5877 5877 5877 5877 5877 5876 5876 5876 5876 5876 5875 5875 5874 5874 5873 5872 5871 5871 5870 5869 5868 5868 5867 5866 5866 5865 5865 5865 5864 5864 5863 5863 5863
5872 5872 5872 5873 5873 5873 5874 5874 5874 5874 5874 5874 5874 5875 5874 5874 5875 5875 5875 5875 5875 5875 5874 5874 5874 5874 5873 5873 5873 5872 5871 5871 5870 5869 5868 5868 5867 5866 5865 5865 5864 5864 5863 5863 5863 5862 5862 5861 5861
5870 5871 5871 5871 5871 5871 5872 5872 5872 5872 5872 5872 5872 5873 5873 5872 5873 5873 5873 5873 5873 5873 5873 5872 5872 5872 5872 5871 5871 5870 5869 5869 5868 5867 5866 5866 5865 5864 5863 5863 5862 5862 5861 5861 5861 5860 5860 5859 5859
5868 5869 5869 5870 5869 5869 5871 5871 5871 5870 5870 5870 5870 5871 5870 5870 5871 5871 5871 5871 5871 5871 5871 5871 5870 5870 5870 5869 5868 5868 5867 5867 5866 5865 5864 5864 5863 5862 5862 5861 5860 5860 5860 5859 5858 5858 5858 5857 5857
5866 5867 5867 5868 5868 5868 5868 5868 5869 5868 5868 5868 5868 5869 5869 5868 5869 5869 5869 5869 5868 5869 5869 5868 5868 5868 5868 5867 5867 5866 5865 5865 5864 5863 5862 5862 5861 5861 5860 5859 5859 5858 5858 5857 5856 5856 5856 5856 5855
5865 5865 5866 5866 5866 5866 5866 5867 5867 5867 5867 5867 5866 5866 5866 5866 5866 5866 5866 5867 5866 5866 5867 5866 5866 5866 5866 5865 5864 5864 5864 5863 5862 5861 5860 5860 5859 5859 5858 5857 5857 5856 5856 5855 5854 5854 5854 5854 5854
5863 5863 5864 5864 5864 5865 5865 5865 5865 5864 5864 5864 5864 5864 5864 5864 5864 5864 5864 5865 5864 5864 5864 5864 5864 5864 5863 5863 5862 5862 5861 5861 5860 5859 5858 5858 5857 5857 5856 5855 5855 5854 5854 5853 5852 5852 5852 5852 5852
5861 5861 5862 5862 5862 5863 5863 5863 5863 5863 5863 5863 5863 5863 5863 5863 5863 5862 5862 5862 5862 5862 5862 5862 5862 5861 5861 5861 5860 5860 5859 5858 5858 5857 5856 5856 5855 5855 5854 5853 5853 5853 5852 5851 5851 5851 5850 5850 5850
5859 5859 5860 5860 5860 5860 5861 5861 5861 5861 5861 5861 5861 5861 5861 5861 5861 5861 5861 5860 5860 5860 5860 5859 5859 5859 5858 5858 5858 5857 5857 5856 5856 5855 5854 5854 5853 5853 5852 5852 5851 5851 5850 5850 5849 5849 5848 5848 5848
5857 5857 5858 5858 5858 5858 5859 5859 5860 5859 5859 5859 5859 5859 5859 5859 5859 5858 5858 5858 5858 5857 5857 5857 5856 5856 5856 5856 5855 5855 5854 5854 5853 5853 5852 5852 5851 5851 5850 5850 5849 5849 5848 5848 5848 5847 5847 5846 5846
5855 5855 5856 5856 5856 5856 5856 5857 5858 5857 5857 5857 5857 5857 5857 5856 5856 5856 5856 5855 5855 5855 5854 5854 5854 5853 5853 5853 5853 5852 5852 5852 5851 5850 5850 5850 5849 5849 5848 5848 5847 5847 5846 5846 5846 5845 5845 5844 5844
5852 5853 5853 5853 5854 5854 5854 5854 5855 5855 5854 5854 5854 5854 5854 5854 5853 5853 5853 5852 5852 5852 5851 5851 5851 5850 5850 5850 5850 5850 5849 5849 5848 5848 5847 5847 5847 5846 5846 5846 5845 5845 5844 5844 5843 5843 5842 5842 5841
5850 5851 5851 5851 5851 5852 5851 5851 5852 5852 5851 5851 5851 5851 5851 5851 5851 5850 5850 5849 5849 5848 5848 5848 5847 5847 5847 5847 5847 5846 5846 5846 5845 5845 5845 5844 5844 5844 5843 5843 5842 5842 5841 5841 5841 5840 5839 5839 5838
5847 5848 5849 5849 5849 5848 5848 5848 5849 5849 5848 5848 5848 5848 5847 5847 5847 5847 5847 5846 5846 5845 5845 5844 5844 5844 5843 5843 5843 5843 5843 5843 5842 5842 5842 5841 5841 5841 5840 5839 5839 5839 5838 5838 5837 5837 5836 5836 5835
5844 5844 5845 5845 5844 5845 5845 5845 5846 5845 5845 5845 5845 5844 5844 5844 5844 5843 5843 5842 5842 5842 5841 5841 5840 5840 5840 5839 5839 5839 5839 5839 5838 5838 5838 5838 5837 5837 5836 5836 5835 5835 5835 5834 5834 5833 5833 5832 5832
5840 5840 5841 5841 5840 5840 5841 5841 5842 5842 5841 5841 5841 5841 5840 5840 5840 5839 5839 5838 5838 5837 5837 5836 5836 5836 5835 5835 5835 5835 5835 5835 5834 5834 5834 5834 5833 5833 5832 5832 5832 5831 5831 5830 5830 5829 5829 5828 5828
5837 5837 5836 5836 5837 5837 5837 5840 5838 5838 5837 5837 5837 5837 5836 5836 5835 5835 5834 5834 5833 5833 5832 5832 5832 5831 5831 5831 5830 5830 5830 5830 5830 5830 5830 5829 5829 5828 5828 5828 5827 5827 5827 5826 5826 5825 5825 5824 5824
5832 5832 5833 5833 5833 5833 5833 5837 5834 5834 5833 5833 5833 5833 5832 5831 5831 5830 5829 5829 5828 5828 5828 5827 5827 5826 5826 5826 5826 5825 5825 5825 5825 5825 5825 5824 5824 5824 5823 5823 5823 5823 5822 5822 5821 5821 5820 5820 5819